Wind_Speed
70 66 66 69 73 76 77 74 76 75 73 73 68 67 68 70 68 61 57 54 41 39 39 50 61 67 77 80 88 98 101 100 101 107 121 117 108 102 100 99 95 89 86 85 82
68 63 66 70 74 76 78 75 78 77 77 76 70 69 73 72 70 63 54 46 40 37 37 47 58 61 70 78 85 96 97 98 104 108 113 117 111 108 100 100 101 94 90 89 83
67 63 66 71 74 77 80 79 81 80 81 76 71 72 76 71 68 63 50 42 37 34 37 41 51 55 64 77 84 92 93 100 108 108 109 109 115 111 106 100 98 98 96 92 87
66 64 66 71 74 76 81 80 83 83 81 77 73 73 76 69 65 60 46 35 32 34 36 36 48 51 59 71 80 94 99 102 105 107 107 106 115 114 109 103 99 97 99 94 89
66 62 66 69 73 77 82 81 84 83 82 77 72 75 76 70 66 55 43 33 29 32 35 37 46 49 56 70 79 86 94 99 102 106 107 105 108 118 109 105 102 98 99 97 95
62 62 65 68 73 79 82 82 83 85 83 77 74 76 77 73 63 54 41 34 29 29 35 38 46 49 57 70 76 83 93 104 102 103 106 105 107 111 117 105 105 100 98 96 96
59 60 63 68 73 79 82 83 84 85 82 74 77 77 77 75 67 56 42 35 29 27 33 40 50 52 57 66 77 86 95 100 99 102 105 105 99 103 118 114 106 102 103 97 94
58 59 62 67 73 79 80 83 83 86 83 75 77 77 74 76 69 54 44 37 29 24 28 40 47 54 59 65 75 84 94 98 100 102 102 101 97 103 118 119 119 110 105 102 95
55 58 61 66 71 76 80 83 83 87 83 74 77 77 76 76 68 53 43 34 24 19 25 33 43 52 59 67 75 83 90 93 97 96 97 96 98 105 113 121 121 116 111 108 102
52 56 59 64 69 75 78 82 85 88 82 74 78 78 77 76 63 50 39 32 23 16 23 32 47 57 59 66 70 77 86 89 95 93 93 98 100 100 104 108 114 120 119 107 111
51 54 57 63 68 73 77 81 86 90 83 75 77 79 78 76 62 48 39 29 17 13 22 31 45 56 60 66 73 81 85 86 91 93 96 96 100 104 103 104 109 113 112 119 102
50 51 56 62 66 71 76 81 86 91 82 73 77 78 77 75 64 47 38 27 14 12 22 34 43 53 64 71 76 82 85 87 89 93 101 97 97 101 101 97 101 108 111 114 120
48 49 55 60 63 69 73 78 83 88 80 72 76 76 77 72 60 44 33 20 9 13 25 34 43 50 60 69 71 77 81 82 86 92 92 94 100 98 96 92 94 100 104 112 108
46 50 54 58 60 67 72 74 81 86 76 70 73 74 74 70 58 43 30 17 9 9 19 34 42 50 57 69 73 77 81 84 88 92 94 96 97 92 91 92 88 91 97 100 107
45 48 51 55 59 65 68 73 78 83 73 68 68 70 72 69 54 39 30 16 11 6 16 25 36 46 57 61 66 70 73 81 87 92 92 91 90 88 87 87 85 84 89 95 98
43 47 50 54 57 62 65 70 74 80 74 67 67 71 72 66 53 39 32 21 19 11 18 23 29 40 48 56 63 67 75 79 85 84 84 87 88 85 85 86 82 83 85 90 92
42 45 48 51 55 59 61 65 70 73 69 65 69 71 70 67 54 43 34 26 26 16 16 22 27 34 47 55 59 65 73 77 75 78 80 83 81 76 77 77 77 83 85 82 87
39 43 44 48 51 54 57 61 65 67 71 63 66 70 69 66 56 47 38 33 23 20 11 20 27 33 42 49 56 63 64 65 66 66 72 77 79 78 73 71 73 77 81 82 84
38 40 41 44 48 49 52 56 60 61 67 61 62 71 71 68 62 54 45 35 29 20 14 11 22 33 42 47 53 55 59 60 61 64 68 70 73 74 74 72 73 76 80 83 81
36 37 38 40 43 45 47 51 54 54 62 65 63 67 68 66 66 60 51 43 32 26 20 7 12 24 32 38 42 47 54 58 60 62 65 69 72 75 74 75 79 80 81 81 80
34 35 36 38 38 39 41 47 47 48 57 66 68 69 68 67 66 63 58 49 39 29 22 15 4 11 22 31 37 41 47 53 57 61 65 68 67 69 74 72 74 76 77 78 77
33 31 33 34 32 35 36 42 41 44 50 58 64 67 68 68 64 63 60 56 47 37 26 17 10 1 10 23 30 35 41 48 54 58 62 64 65 66 69 69 71 73 74 76 76
33 30 29 28 27 29 32 37 36 39 46 51 58 62 64 65 66 64 62 56 50 42 32 22 13 7 3 11 23 32 38 43 50 55 59 63 65 68 68 69 70 72 72 74 75
30 28 27 22 23 23 27 32 31 35 41 47 51 57 59 61 62 63 62 59 54 50 42 31 21 12 8 10 14 21 33 40 46 51 56 58 61 63 66 69 70 70 70 73 75
30 28 24 20 17 19 23 28 27 31 39 43 50 52 55 58 61 61 60 58 57 53 44 38 30 20 14 11 14 18 24 33 45 49 52 58 60 64 66 68 68 69 68 70 75
31 27 23 16 14 16 20 24 22 28 36 38 43 47 53 57 59 63 62 61 60 58 53 42 35 31 22 17 17 21 26 30 34 37 49 53 58 62 62 65 67 68 68 70 74
29 26 20 16 11 12 16 21 20 25 32 37 39 43 48 55 59 60 64 62 59 57 51 45 40 35 27 21 21 25 26 30 33 38 41 45 56 54 57 60 65 68 68 70 72
Wind_Direction
319 319 320 322 324 327 328 334 335 335 334 333 333 332 333 331 326 319 317 306 291 266 248 229 223 221 219 217 211 213 212 212 212 211 212 211 214 220 215 216 219 220 226 223 221
317 319 320 322 324 326 328 333 333 336 333 336 333 332 335 332 328 322 317 304 289 268 253 231 224 218 218 218 212 212 212 212 213 213 214 210 212 221 218 217 218 217 221 227 222
316 317 318 321 324 325 326 332 331 334 333 338 334 335 335 332 330 324 315 300 284 263 251 230 228 221 214 217 213 212 210 212 214 214 215 212 210 214 220 219 219 217 220 223 224
313 314 318 321 322 325 327 330 331 334 334 339 335 337 333 332 332 326 317 301 280 261 250 227 224 221 214 212 215 211 208 211 214 215 215 213 209 212 219 220 220 220 219 221 224
311 313 316 320 321 324 327 329 331 333 334 338 334 339 335 334 333 329 319 305 283 266 249 231 223 216 213 210 213 213 207 211 214 216 216 214 209 210 212 221 221 219 217 220 221
309 311 315 319 321 323 327 329 331 332 336 337 336 341 337 337 337 333 323 309 291 266 250 233 222 214 212 209 208 209 205 212 212 214 215 216 212 211 210 212 224 223 218 218 220
306 309 315 318 321 323 326 328 330 332 338 339 339 341 341 341 340 335 328 318 298 271 249 230 221 212 209 209 205 205 206 211 212 214 216 217 214 211 209 212 216 226 225 221 222
304 308 314 317 320 322 325 326 331 334 339 341 339 342 344 343 343 336 331 321 300 272 246 226 222 213 207 205 204 204 203 207 213 213 216 216 216 213 211 212 214 217 229 228 225
302 306 312 317 319 322 325 324 331 334 340 341 342 342 347 346 341 338 333 321 309 278 237 220 212 212 206 204 203 205 204 204 212 214 215 217 217 217 213 213 215 216 222 230 230
299 305 311 315 320 321 324 325 331 333 340 342 344 345 349 345 342 340 334 324 316 278 225 206 204 204 202 205 203 204 204 204 208 214 215 216 219 220 217 215 216 218 220 227 231
296 304 309 313 319 321 322 326 331 331 341 344 342 348 351 348 347 342 337 331 325 263 213 198 205 202 198 200 200 199 204 205 209 211 216 218 220 221 218 215 216 217 220 221 223
294 302 308 312 318 320 321 325 330 330 342 347 346 351 353 350 349 345 342 337 323 230 198 192 200 203 197 198 199 201 203 204 208 211 216 219 219 223 222 217 218 219 219 221 226
292 301 306 310 317 317 320 326 329 331 341 347 348 353 355 351 352 351 341 340 330 208 195 187 194 199 197 200 200 202 204 205 208 213 216 220 224 221 223 221 219 221 222 222 226
290 299 304 309 314 315 319 327 329 331 342 349 350 356 355 356 356 356 347 353 18 189 187 188 193 194 196 199 201 203 204 206 210 213 216 219 222 225 222 225 222 222 225 225 227
287 296 302 309 311 314 320 326 329 332 341 350 355 359 359 1 1 2 1 16 46 135 164 182 192 191 195 199 205 205 208 208 211 214 217 220 223 224 223 225 225 226 227 227 228
283 292 300 308 309 313 321 326 331 333 341 348 358 3 2 5 7 12 19 38 68 110 149 167 182 188 194 198 204 205 210 212 213 217 219 222 224 226 225 225 225 225 227 228 228
280 289 298 303 306 312 322 327 331 333 339 351 2 6 4 8 14 19 30 48 62 89 132 150 175 189 193 197 203 209 210 215 218 217 221 225 229 230 231 230 229 230 230 230 230
277 287 296 300 305 312 321 329 333 335 340 355 1 8 10 13 21 29 29 43 53 71 120 154 170 177 198 200 204 211 215 217 220 222 224 227 229 232 233 234 232 233 234 233 231
275 283 292 298 304 313 323 330 335 337 342 0 0 8 11 15 21 28 35 41 45 61 88 164 184 188 198 202 205 209 215 219 219 223 226 229 232 236 236 238 238 236 235 234 233
272 280 286 294 303 313 325 329 336 341 348 360 3 9 13 18 24 29 33 36 41 45 50 92 190 201 207 209 211 211 213 217 220 222 225 228 228 232 233 232 234 233 234 234 233
268 276 281 292 302 312 327 328 337 346 356 358 1 5 11 20 26 26 30 33 36 37 40 48 43 218 213 214 217 217 217 218 220 222 225 229 230 232 235 234 236 237 236 238 236
264 268 277 289 300 313 328 328 339 349 358 4 1 4 8 14 27 30 27 30 31 31 31 33 29 292 243 228 226 224 221 221 222 225 228 231 234 235 238 237 238 239 240 240 240
259 262 274 284 297 316 327 327 340 351 355 7 4 5 9 15 17 26 32 29 29 29 25 23 17 359 294 249 238 228 229 229 229 229 230 231 233 237 238 241 241 241 241 242 242
247 254 265 280 298 317 326 327 340 355 358 5 9 8 14 17 19 21 25 32 30 27 25 21 15 355 320 271 261 255 243 237 233 234 236 237 237 239 241 241 242 243 243 245 245
235 249 258 276 298 317 323 327 342 356 2 5 9 12 16 24 25 26 24 26 28 24 25 20 16 2 337 291 266 255 252 249 243 242 239 239 240 240 241 245 245 244 244 245 247
231 241 254 270 291 313 319 326 341 354 0 6 11 16 18 23 28 32 30 30 29 25 21 19 22 12 350 325 294 266 255 252 252 254 252 251 246 246 245 245 247 247 247 245 247
228 240 249 259 281 302 319 324 341 352 354 3 10 15 22 26 30 30 31 28 29 30 22 13 14 14 9 345 304 286 274 259 256 255 252 253 256 255 252 251 250 249 249 247 247
Height
10740 10732 10722 10713 10702 10691 10678 10671 10660 10650 10636 10622 10610 10598 10588 10572 10558 10547 10533 10522 10520 10518 10518 10522 10525 10535 10545 10564 10578 10591 10605 10632 10654 10662 10659 10690 10710 10720 10741 10757 10768 10783 10788 10799 10811
10733 10726 10715 10704 10694 10683 10671 10664 10650 10640 10626 10611 10597 10585 10574 10558 10542 10529 10518 10507 10502 10501 10503 10506 10510 10518 10534 10550 10565 10578 10597 10625 10634 10640 10650 10682 10704 10706 10725 10741 10752 10769 10780 10784 10803
10726 10718 10708 10697 10686 10675 10663 10655 10641 10630 10614 10600 10585 10572 10560 10545 10526 10511 10501 10491 10486 10486 10487 10492 10498 10508 10521 10536 10552 10563 10590 10607 10610 10628 10644 10668 10688 10695 10707 10727 10741 10759 10769 10776 10791
10719 10711 10701 10690 10679 10668 10654 10645 10631 10619 10603 10588 10572 10561 10547 10529 10514 10496 10486 10478 10473 10471 10474 10480 10485 10497 10510 10526 10542 10553 10570 10585 10603 10616 10630 10652 10674 10686 10701 10716 10730 10742 10754 10767 10779
10712 10704 10694 10684 10672 10660 10648 10635 10623 10611 10594 10579 10562 10547 10533 10513 10497 10482 10472 10465 10461 10461 10463 10469 10474 10486 10498 10514 10528 10544 10564 10575 10587 10603 10618 10635 10660 10675 10695 10701 10713 10725 10739 10752 10766
10705 10697 10687 10677 10665 10653 10641 10628 10614 10600 10585 10568 10552 10536 10518 10496 10481 10468 10458 10452 10449 10449 10450 10457 10463 10475 10487 10496 10515 10537 10555 10557 10571 10590 10606 10622 10644 10661 10681 10693 10698 10711 10724 10738 10752
10698 10690 10680 10670 10659 10647 10634 10620 10606 10591 10575 10558 10541 10526 10506 10484 10466 10453 10445 10439 10435 10435 10438 10443 10450 10462 10475 10486 10504 10516 10535 10547 10563 10580 10593 10608 10635 10658 10668 10680 10690 10692 10710 10727 10739
10690 10682 10674 10664 10653 10641 10627 10611 10599 10585 10567 10550 10531 10515 10496 10473 10455 10441 10433 10427 10422 10422 10424 10430 10439 10451 10463 10479 10494 10508 10521 10535 10550 10566 10582 10602 10624 10641 10650 10665 10677 10691 10696 10713 10728
10683 10674 10667 10659 10647 10635 10620 10603 10593 10578 10560 10543 10524 10507 10485 10463 10447 10433 10423 10416 10412 10411 10414 10420 10431 10443 10456 10469 10482 10497 10515 10533 10542 10558 10575 10595 10608 10617 10630 10646 10663 10680 10691 10700 10714
10676 10668 10662 10653 10643 10630 10614 10598 10587 10571 10556 10538 10518 10499 10477 10458 10439 10424 10414 10406 10403 10403 10406 10412 10421 10433 10449 10462 10479 10497 10509 10528 10539 10552 10570 10581 10590 10606 10618 10640 10653 10668 10680 10690 10698
10668 10662 10656 10648 10638 10625 10608 10595 10583 10563 10552 10533 10515 10491 10470 10452 10431 10416 10406 10398 10395 10395 10400 10407 10415 10430 10445 10458 10474 10485 10503 10520 10533 10544 10552 10565 10577 10586 10602 10623 10638 10654 10667 10679 10686
10660 10656 10651 10642 10634 10620 10604 10591 10576 10559 10547 10531 10509 10487 10469 10448 10429 10412 10401 10392 10390 10390 10395 10402 10411 10424 10437 10450 10464 10476 10491 10507 10523 10534 10541 10552 10566 10576 10590 10614 10628 10639 10653 10663 10671
10653 10650 10645 10637 10629 10615 10601 10590 10574 10555 10548 10529 10509 10487 10465 10447 10427 10410 10400 10392 10388 10387 10390 10399 10408 10421 10436 10448 10463 10474 10490 10506 10517 10525 10537 10546 10554 10568 10585 10600 10616 10631 10641 10653 10661
10646 10644 10639 10631 10623 10610 10597 10589 10571 10552 10545 10530 10509 10486 10467 10446 10426 10410 10400 10392 10388 10387 10392 10399 10407 10419 10435 10445 10456 10471 10485 10498 10508 10517 10526 10533 10544 10558 10575 10587 10608 10622 10633 10643 10653
10640 10638 10633 10625 10617 10605 10596 10584 10569 10551 10543 10528 10510 10488 10468 10446 10429 10413 10402 10395 10390 10391 10395 10402 10411 10423 10433 10448 10459 10471 10486 10494 10501 10505 10516 10530 10541 10550 10569 10582 10596 10610 10619 10629 10638
10633 10631 10627 10621 10612 10602 10594 10582 10569 10548 10537 10526 10510 10488 10467 10450 10432 10417 10406 10399 10397 10396 10400 10406 10416 10426 10437 10448 10456 10469 10477 10485 10492 10503 10518 10526 10534 10544 10560 10569 10582 10592 10602 10611 10623
10626 10625 10621 10615 10609 10599 10592 10581 10568 10551 10542 10528 10509 10491 10474 10453 10433 10420 10415 10408 10404 10404 10405 10412 10418 10427 10435 10444 10456 10463 10472 10478 10489 10503 10513 10521 10530 10541 10552 10562 10572 10578 10587 10598 10606
10619 10618 10615 10610 10605 10597 10590 10579 10567 10552 10533 10529 10511 10495 10476 10459 10443 10430 10417 10415 10414 10414 10413 10417 10422 10430 10436 10445 10453 10457 10466 10478 10492 10502 10510 10515 10522 10528 10540 10547 10554 10566 10574 10583 10592
10612 10611 10608 10605 10601 10594 10589 10576 10567 10554 10535 10531 10512 10496 10478 10462 10447 10434 10428 10424 10420 10422 10422 10423 10426 10430 10433 10440 10447 10458 10467 10475 10487 10495 10501 10510 10517 10523 10533 10539 10544 10550 10556 10564 10577
10605 10604 10602 10601 10598 10592 10586 10575 10568 10555 10538 10527 10513 10498 10487 10469 10453 10444 10437 10430 10427 10426 10427 10429 10432 10434 10438 10443 10449 10458 10463 10469 10477 10485 10492 10499 10507 10511 10519 10524 10527 10534 10541 10550 10562
10597 10596 10595 10596 10594 10590 10583 10573 10568 10557 10543 10526 10514 10499 10486 10472 10459 10449 10441 10437 10433 10432 10431 10431 10434 10437 10440 10443 10448 10455 10460 10466 10471 10476 10481 10486 10496 10502 10501 10514 10520 10524 10530 10537 10547
10588 10588 10589 10591 10590 10586 10580 10571 10568 10558 10547 10534 10519 10506 10490 10478 10470 10458 10448 10442 10439 10436 10436 10436 10436 10437 10440 10443 10445 10450 10456 10461 10464 10470 10474 10480 10485 10489 10491 10498 10505 10511 10518 10524 10530
10581 10580 10584 10586 10586 10582 10577 10570 10565 10560 10548 10540 10524 10512 10497 10485 10473 10467 10460 10451 10446 10442 10440 10438 10438 10438 10439 10441 10443 10446 10449 10454 10459 10463 10467 10471 10474 10476 10480 10484 10490 10495 10503 10508 10514
10573 10574 10578 10581 10581 10578 10575 10569 10565 10560 10550 10541 10531 10515 10502 10492 10482 10474 10469 10463 10455 10447 10442 10438 10437 10436 10437 10438 10439 10442 10444 10447 10449 10452 10456 10462 10464 10467 10467 10470 10475 10482 10490 10492 10496
10565 10567 10572 10576 10577 10574 10572 10568 10564 10560 10552 10542 10532 10519 10508 10498 10488 10481 10474 10464 10458 10453 10448 10441 10437 10434 10432 10432 10433 10434 10435 10438 10439 10440 10444 10444 10450 10451 10453 10457 10461 10466 10473 10477 10476
10557 10562 10566 10570 10572 10570 10569 10565 10562 10559 10553 10545 10536 10527 10514 10501 10494 10486 10479 10469 10462 10457 10451 10445 10440 10434 10430 10428 10426 10425 10425 10426 10426 10428 10431 10433 10435 10432 10441 10443 10444 10448 10454 10457 10458
10550 10556 10561 10565 10566 10567 10566 10563 10560 10557 10551 10545 10537 10530 10520 10509 10499 10491 10481 10473 10469 10462 10457 10449 10443 10437 10431 10426 10422 10418 10418 10417 10417 10416 10417 10419 10413 10420 10423 10427 10429 10430 10435 10440 10441